Location: Unspecified
(0.0000°N, 0.0000°E)
Time: 06:38:41
(UTC+02:00)

Sapphire - Visible Passes

Search period start: 03 August 2015 00:00
Search period end: 13 August 2015 00:00
Orbit: 788 x 794 km, 67.1° (Epoch: 02 August)

Date Brightness Start Highest point End Pass type
(mag) Time Alt. Az. Time Alt. Az. Time Alt. Az.
03 Aug ? 21:38:29 10° NW 21:42:56 25° WSW 21:47:15 10° SSW visible
04 Aug ? 21:07:20 10° NW 21:12:21 39° WSW 21:17:19 10° S visible
05 Aug ? 20:36:28 10° NNW 20:41:47 60° WSW 20:47:07 10° S visible
06 Aug ? 07:30:26 10° SSE 07:34:55 28° ESE 07:39:32 10° NE visible
07 Aug ? 07:00:49 10° SSE 07:04:18 18° ESE 07:08:03 10° ENE visible
08 Aug ? 06:32:11 10° SE 06:33:39 11° ESE 06:35:33 10° E visible
08 Aug ? 20:50:29 10° WNW 20:53:31 14° WSW 20:56:13 10° SW visible
09 Aug ? 07:41:08 10° SSW 07:46:32 71° WNW 07:51:54 10° NNE visible
10 Aug ? 07:10:35 10° SSW 07:15:59 75° ESE 07:21:23 10° NNE visible
11 Aug ? 06:40:15 10° S 06:45:26 48° ESE 06:50:38 10° NE visible
12 Aug ? 06:10:55 14° SSE 06:14:52 31° ESE 06:19:39 10° NE visible
